Location: Beuerbach
(48.1459°N, 10.9174°E)
Time: 03:17:28
(UTC+00:00)

Sich 1 Rocket - Pass Details

Date: 23 May 2024
Orbit: 613 x 650 km, 82.5° (Epoch: 19 June)

Event Time Altitude Azimuth Distance (km) Brightness Sun altitude
Rises 02:31:56 0° 347° (NNW) 2,960 7.5 -8.1°
Reaches altitude 10° 02:34:13 10° 343° (NNW) 2,040 6.6 -7.8°
Maximum altitude 02:38:39 58° 265° (W) 740 3.7 -7.3°
Drops below altitude 10° 02:43:01 10° 187° (S) 2,000 5.7 -6.8°
Sets 02:45:15 0° 183° (S) 2,896 6.6 -6.5°
